Regional Weather Roundup
Issued by NWS

Home | Current Version | Previous Version | Graphics & Text | Print | Product List | Glossary On
Versions: 1 2 3 4 5 6 7 8 9 10 11 12 13 14 15 16 17 18 19 20 21 22 23 24 25 26 27 28 29 30 31 32 33 34 35 36 37 38 39 40 41 42 43 44 45 46 47 48 49 50
000
ASUS43 KIND 250359
RWRIN

WEATHER ROUNDUP FOR INDIANA
NATIONAL WEATHER SERVICE INDIANAPOLIS IN
1200 AM EDT MON MAY 25 2015

NOTE: "FAIR" INDICATES FEW OR NO CLOUDS BELOW 12,000 FEET WITH NO
SIGNIFICANT WEATHER AND/OR OBSTRUCTIONS TO VISIBILITY.

* - STATION DOES NOT REPORT WEATHER SUCH AS PRECIPITATION OR FOG.

+ - STATION NOT QUALITY CONTROLLED BY THE NATIONAL WEATHER SERVICE.
    USE DATA WITH CAUTION...ESPECIALLY DEWPOINT AND RELATIVE
    HUMIDITY OBSERVATIONS.

INZ001>003-010>013-019-020-250500-
NORTHWEST INDIANA

CITY           SKY/WX    TMP DP  RH WIND       PRES   REMARKS

$$

LMZ046-743>745-250500-
SOUTHERN LAKE MICHIGAN

STATION/POSITION TIME  TEMP    WIND        PRES    WAVE
                       AIR SEA DIR/SP/G            HT
                 (UTC) (F)     (DEG/KT/KT) (MB)    (FT)
BURNS HARBOR     0300   76     170/ 12/ 18 1014.6F
MICHIGAN CITY    0300   77     150/ 11/ 16   N/A
5NW MICH CITY    0300   69 54  190/ 12/ 17   N/A     1

$$

INZ004-005-014>016-021>024-250500-
NORTH CENTRAL INDIANA

CITY           SKY/WX    TMP DP  RH WIND       PRES   REMARKS
GOSHEN         CLEAR     73  55  53 S13       30.01F
SOUTH BEND     CLEAR     74  55  51 S10       30.00F

$$

INZ006>009-017-018-025>027-250500-
NORTHEAST INDIANA

CITY           SKY/WX    TMP DP  RH WIND       PRES   REMARKS
ANGOLA *+      CLEAR     73  54  49 S10       30.06R
FORT WAYNE     PTCLDY    72  54  53 S13       30.06F

$$

INZ028-029-035-036-043>045-051>053-250500-
WEST CENTRAL INDIANA

CITY           SKY/WX    TMP DP  RH WIND       PRES   REMARKS
GREENCASTLE +  MOCLDY    70  55  60 S13       30.05S
LAFAYETTE      PTCLDY    72  60  66 S8        30.00F
TERRE HAUTE    MOCLDY    74  61  63 S12       30.02S

$$

INZ030>032-037>040-046>048-054>057-064-065-250500-
CENTRAL INDIANA

CITY           SKY/WX    TMP DP  RH WIND       PRES   REMARKS
GREENWOOD *+   MOCLDY    73  54  49 SE9       30.08S
INDIANAPOLIS   MOCLDY    73  58  59 SE12      30.04S
-EAGLE CREEK   MOCLDY    74  58  57 S8        30.05S
KOKOMO *+      CLEAR     72  55  56 S12       30.04S
MT COMFORT *+  PTCLDY    73  45  35 S9        30.07S
SHELBYVILLE    PTCLDY    75  56  51 S13       30.07F

$$

INZ033-034-041-042-049-050-058-059-250500-
EAST CENTRAL INDIANA

CITY           SKY/WX    TMP DP  RH WIND       PRES   REMARKS
MUNCIE         CLEAR     73  54  51 S9        30.07F

$$

INZ060-061-067>069-081>083-085>088-250500-
SOUTHWEST INDIANA

CITY           SKY/WX    TMP DP  RH WIND       PRES   REMARKS
EVANSVILLE     MOCLDY    75  64  68 S8        30.04S
HUNTINGBURG *+ MOCLDY    75  61  60 S10G17    30.06F

$$

INZ062-063-066-070>080-084-089>092-250500-
SOUTH CENTRAL AND SOUTHEAST INDIANA

CITY           SKY/WX    TMP DP  RH WIND       PRES   REMARKS
BLOOMINGTON    MOCLDY    73  60  63 S10       30.06S
MADISON *+     PTCLDY    72  52  49 S8        30.13S
SEYMOUR +      MOCLDY    75  57  53 S9        30.08S

$$



USA.gov is the U.S. government's official web portal to all federal, state and local government web resources and services.